Tracking 28790 objects as of 19-Apr-2024
HD Live streaming from Space Station
objects crossing your sky now

STARLINK-2335

Track STARLINK-2335 now!
10-day predictions
STARLINK-2335 is classified as:


NORAD ID: 47878
Int'l Code: 2021-021U
Perigee: 553.5 km
Apogee: 554.9 km
Inclination: 53.1 °
Period: 95.6 minutes
Semi major axis: 6925 km
RCS: Unknown
Launch date: March 14, 2021
Source: United States (US)
Launch site: AIR FORCE EASTERN TEST RANGE (AFETR)
Your satellite tracking list
Your tracking list is empty




NASA's NSSDC Master Catalog

Two Line Element Set (TLE):
1 47878U 21021U   24110.21452181  .00011949  00000-0  81866-3 0  9998
2 47878  53.0527 126.7920 0000989  84.1146 275.9956 15.06446978171805
Source of the keplerian elements: AFSPC